{"data":{"norad_id":65383,"epoch":"2026-05-25T02:36:10.043712Z","epoch_age_seconds":61747,"freshness":"FRESH","line1":"1 65383U 25191E   26145.10844958  .00002795  00000+0  19769-3 0  9997","line2":"2 65383  97.4533  16.4045 0002145  75.5384 284.6081 15.05656486 41765","mean_motion":15.05656486,"eccentricity":0.0002145,"inclination_deg":97.4533,"raan_deg":16.4045,"arg_perigee_deg":75.5384,"mean_anomaly_deg":284.6081,"bstar":0.00019769,"rev_number":4176,"period_min":95.63934492293,"perigee_km":548.00528268702,"apogee_km":550.97723521011,"semimajor_km":6927.6282589486,"source":"CELESTRAK","updated_at":"2026-05-25T13:38:20.772455Z"}}